When you browse on this site, cookies collect data to enhance your experience and personalize the content and advertising you see.
Visit our Privacy Policy to learn more. By continuing to use the site, you agree to this use of cookies and data.
  • In Romania
  • List of Countries
  • For 7 days
  • Water Temperature
  • Satellite Maps
  • Weather Map
  • Weather Widgets
  • user-avatar
    Login

    Hourly Weather Smolan

    Today, 20 May, Monday

    Time Temperature Precipitation Wind Pressure Humidity
    00:00 +8°C° 0 mm 2 mps 649 mmHg 74%
    01:00 +9°C° 0 mm 1 mps 649 mmHg 77%
    02:00 +8°C° 0 mm 1 mps 649 mmHg 80%
    03:00 +8°C° 0 mm 1 mps 649 mmHg 81%
    04:00 +8°C° 0 mm 1 mps 649 mmHg 83%
    05:00 +8°C° 0 mm 1 mps 649 mmHg 85%
    06:00 +11°C° 0 mm 1 mps 650 mmHg 79%
    07:00 +13°C° 0 mm 1 mps 650 mmHg 73%
    08:00 +15°C° 0 mm 2 mps 651 mmHg 67%
    09:00 +16°C° 0 mm 2 mps 652 mmHg 62%
    10:00 +17°C° 0 mm 3 mps 652 mmHg 56%
    11:00 +19°C° 0 mm 4 mps 653 mmHg 51%
    12:00 +19°C° 0 mm 4 mps 653 mmHg 50%
    13:00 +19°C° 0 mm 5 mps 653 mmHg 50%
    14:00 +19°C° 0 mm 6 mps 653 mmHg 50%
    15:00 +17°C° 0 mm 6 mps 652 mmHg 56%
    16:00 +16°C° 0 mm 5 mps 652 mmHg 63%
    17:00 +15°C° 0 mm 5 mps 651 mmHg 69%
    18:00 +13°C° 0 mm 4 mps 651 mmHg 76%
    19:00 +11°C° 0 mm 3 mps 651 mmHg 83%
    20:00 +9°C° 0 mm 2 mps 650 mmHg 90%
    21:00 +9°C° 0 mm 2 mps 651 mmHg 90%
    22:00 +9°C° 0 mm 2 mps 651 mmHg 90%
    23:00 +8°C° 0 mm 2 mps 651 mmHg 90%

    Tomorrow, 21 May, Tuesday

    Time Temperature Precipitation Wind Pressure Humidity
    00:00 +8°C° 0 mm 2 mps 651 mmHg 91%
    01:00 +8°C° 0 mm 2 mps 651 mmHg 91%
    02:00 +7°C° 0 mm 2 mps 651 mmHg 91%
    03:00 +7°C° 0 mm 2 mps 651 mmHg 90%
    04:00 +7°C° 0 mm 2 mps 651 mmHg 89%
    05:00 +6°C° 0 mm 2 mps 651 mmHg 87%
    06:00 +9°C° 0 mm 2 mps 652 mmHg 75%
    07:00 +12°C° 0 mm 2 mps 653 mmHg 62%
    08:00 +14°C° 0 mm 2 mps 654 mmHg 49%
    09:00 +16°C° 0 mm 3 mps 654 mmHg 44%
    10:00 +17°C° 0 mm 4 mps 654 mmHg 39%
    11:00 +18°C° 0 mm 4 mps 655 mmHg 34%
    12:00 +17°C° 0 mm 5 mps 655 mmHg 35%
    13:00 +17°C° 0 mm 5 mps 654 mmHg 36%
    14:00 +17°C° 0 mm 5 mps 654 mmHg 38%
    15:00 +17°C° 0 mm 5 mps 654 mmHg 41%
    16:00 +16°C° 0 mm 5 mps 654 mmHg 45%
    17:00 +15°C° 0 mm 5 mps 653 mmHg 49%
    18:00 +13°C° 0.2 mm 4 mps 653 mmHg 60%
    19:00 +11°C° 0.2 mm 3 mps 653 mmHg 71%
    20:00 +9°C° 0.2 mm 2 mps 652 mmHg 82%
    21:00 +8°C° 0 mm 2 mps 652 mmHg 81%
    22:00 +8°C° 0 mm 2 mps 653 mmHg 80%
    23:00 +7°C° 0 mm 2 mps 653 mmHg 79%

    Day after tomorrow, 22 May, Wednesday

    Time Temperature Precipitation Wind Pressure Humidity
    00:00 +7°C° 0 mm 2 mps 653 mmHg 77%
    01:00 +7°C° 0 mm 2 mps 653 mmHg 75%
    02:00 +7°C° 0 mm 2 mps 653 mmHg 73%
    03:00 +8°C° 0 mm 1 mps 653 mmHg 73%
    04:00 +7°C° 0 mm 1 mps 653 mmHg 73%
    05:00 +7°C° 0 mm 1 mps 653 mmHg 73%
    06:00 +10°C° 0 mm 1 mps 654 mmHg 65%
    07:00 +13°C° 0 mm 1 mps 656 mmHg 57%
    08:00 +15°C° 0 mm 0 mps 657 mmHg 49%
    09:00 +18°C° 0 mm 1 mps 657 mmHg 46%
    10:00 +19°C° 0 mm 1 mps 658 mmHg 43%
    11:00 +19°C° 0 mm 2 mps 658 mmHg 40%
    12:00 +20°C° 0 mm 2 mps 658 mmHg 40%
    13:00 +20°C° 0 mm 2 mps 657 mmHg 41%
    14:00 +20°C° 0 mm 3 mps 657 mmHg 42%
    15:00 +19°C° 0 mm 2 mps 657 mmHg 45%
    16:00 +18°C° 0 mm 2 mps 656 mmHg 49%
    17:00 +18°C° 0 mm 2 mps 656 mmHg 53%
    18:00 +16°C° 0 mm 2 mps 655 mmHg 64%
    19:00 +13°C° 0 mm 1 mps 654 mmHg 74%
    20:00 +11°C° 0 mm 1 mps 654 mmHg 85%
    21:00 +11°C° 0 mm 1 mps 654 mmHg 84%
    22:00 +11°C° 0 mm 1 mps 654 mmHg 83%
    23:00 +10°C° 0 mm 1 mps 654 mmHg 82%

    23 May, Thursday

    Time Temperature Precipitation Wind Pressure Humidity
    00:00 +10°C° 0 mm 1 mps 654 mmHg 80%
    01:00 +10°C° 0 mm 1 mps 654 mmHg 78%
    02:00 +10°C° 0 mm 1 mps 653 mmHg 76%
    03:00 +10°C° 0 mm 1 mps 653 mmHg 76%
    04:00 +9°C° 0 mm 1 mps 653 mmHg 76%
    05:00 +9°C° 0 mm 1 mps 653 mmHg 77%
    06:00 +12°C° 0 mm 1 mps 654 mmHg 70%
    07:00 +14°C° 0 mm 1 mps 655 mmHg 63%
    08:00 +16°C° 0 mm 0 mps 656 mmHg 56%
    09:00 +19°C° 0.2 mm 1 mps 656 mmHg 57%
    10:00 +19°C° 0.2 mm 1 mps 656 mmHg 57%
    11:00 +20°C° 0.2 mm 1 mps 656 mmHg 57%
    12:00 +19°C° 1 mm 1 mps 656 mmHg 62%
    13:00 +19°C° 1 mm 1 mps 655 mmHg 67%
    14:00 +17°C° 1 mm 2 mps 654 mmHg 72%
    15:00 +18°C° 1.2 mm 1 mps 654 mmHg 72%
    16:00 +18°C° 1.2 mm 1 mps 654 mmHg 73%
    17:00 +18°C° 1.2 mm 1 mps 654 mmHg 74%
    18:00 +15°C° 0.8 mm 1 mps 653 mmHg 80%
    19:00 +13°C° 0.8 mm 1 mps 652 mmHg 87%
    20:00 +11°C° 0.8 mm 1 mps 652 mmHg 93%
    21:00 +11°C° 0.3 mm 1 mps 652 mmHg 94%
    22:00 +10°C° 0.3 mm 1 mps 652 mmHg 95%
    23:00 +10°C° 0.3 mm 1 mps 652 mmHg 95%

    24 May, Friday

    Time Temperature Precipitation Wind Pressure Humidity
    00:00 +10°C° 0.9 mm 1 mps 651 mmHg 95%
    01:00 +10°C° 0.9 mm 1 mps 651 mmHg 96%
    02:00 +9°C° 0.9 mm 1 mps 651 mmHg 96%
    03:00 +9°C° 1.1 mm 1 mps 651 mmHg 96%
    04:00 +9°C° 1.1 mm 1 mps 651 mmHg 96%
    05:00 +9°C° 1.1 mm 1 mps 650 mmHg 97%
    06:00 +10°C° 0.3 mm 1 mps 651 mmHg 94%
    07:00 +11°C° 0.3 mm 1 mps 651 mmHg 91%
    08:00 +13°C° 0.3 mm 1 mps 652 mmHg 87%
    09:00 +14°C° 0.9 mm 1 mps 652 mmHg 85%
    10:00 +14°C° 0.9 mm 1 mps 652 mmHg 83%
    11:00 +15°C° 0.9 mm 1 mps 652 mmHg 81%
    12:00 +15°C° 2.2 mm 1 mps 651 mmHg 83%
    13:00 +15°C° 2.2 mm 1 mps 651 mmHg 84%
    14:00 +15°C° 2.2 mm 1 mps 650 mmHg 85%
    15:00 +14°C° 2 mm 1 mps 650 mmHg 87%
    16:00 +13°C° 2 mm 1 mps 650 mmHg 89%
    17:00 +12°C° 2 mm 1 mps 649 mmHg 91%
    18:00 +12°C° 0.4 mm 1 mps 649 mmHg 91%
    19:00 +11°C° 0.4 mm 1 mps 649 mmHg 92%
    20:00 +10°C° 0.4 mm 1 mps 649 mmHg 92%
    21:00 +10°C° 0.2 mm 1 mps 649 mmHg 92%
    22:00 +10°C° 0.2 mm 1 mps 649 mmHg 92%
    23:00 +9°C° 0.2 mm 1 mps 649 mmHg 92%

    25 May, Saturday

    Time Temperature Precipitation Wind Pressure Humidity
    00:00 +9°C° 0 mm 1 mps 649 mmHg 91%
    01:00 +9°C° 0 mm 1 mps 649 mmHg 91%
    02:00 +9°C° 0 mm 1 mps 648 mmHg 90%
    03:00 +8°C° 0.1 mm 1 mps 648 mmHg 91%
    04:00 +8°C° 0.1 mm 1 mps 648 mmHg 91%
    05:00 +8°C° 0.1 mm 1 mps 648 mmHg 91%
    06:00 +10°C° 0 mm 1 mps 649 mmHg 86%
    07:00 +12°C° 0 mm 1 mps 650 mmHg 81%
    08:00 +14°C° 0 mm 1 mps 651 mmHg 75%
    09:00 +15°C° 0 mm 1 mps 651 mmHg 68%
    10:00 +18°C° 0 mm 1 mps 652 mmHg 60%
    11:00 +18°C° 0 mm 2 mps 652 mmHg 52%
    12:00 +18°C° 0.1 mm 2 mps 652 mmHg 52%
    13:00 +18°C° 0.1 mm 2 mps 652 mmHg 52%
    14:00 +18°C° 0.1 mm 2 mps 652 mmHg 52%
    15:00 +18°C° 0.1 mm 2 mps 652 mmHg 55%
    16:00 +18°C° 0.1 mm 2 mps 651 mmHg 58%
    17:00 +17°C° 0.1 mm 2 mps 651 mmHg 61%
    18:00 +15°C° 0.2 mm 2 mps 651 mmHg 71%
    19:00 +13°C° 0.2 mm 1 mps 650 mmHg 82%
    20:00 +11°C° 0.2 mm 1 mps 650 mmHg 93%
    21:00 +10°C° 0.1 mm 1 mps 650 mmHg 93%
    22:00 +10°C° 0.1 mm 1 mps 650 mmHg 94%
    23:00 +10°C° 0.1 mm 1 mps 650 mmHg 94%
    Show more